This is the latest recevied weather packets stored in our database for station/object ED2YAA-10. If no packets are shown the sender has not sent any weather packets the latest 1 day(s).
| Time | Temp. | Humidity | Pressure | Rain* | Wind** | Luminosity | Snow |
|---|---|---|---|---|---|---|---|
| 1777921883 | 22.22° C | 36% | 926.8 hPa | - | - | - | - |
| 1777921006 | 22.78° C | 36% | 926.9 hPa | - | - | - | - |
| 1777920106 | 23.33° C | 37% | 926.8 hPa | - | - | - | - |
| 1777919206 | 23.33° C | 37% | 926.7 hPa | - | - | - | - |
| 1777918306 | 23.89° C | 38% | 926.8 hPa | - | - | - | - |
| 1777917406 | 23.89° C | 38% | 926.9 hPa | - | - | - | - |
| 1777916506 | 23.33° C | 39% | 926.8 hPa | - | - | - | - |
| 1777915606 | 23.33° C | 39% | 926.8 hPa | - | - | - | - |
| 1777914706 | 23.33° C | 39% | 926.8 hPa | - | - | - | - |
| 1777913806 | 23.33° C | 39% | 927 hPa | - | - | - | - |
| 1777912906 | 22.78° C | 40% | 926.6 hPa | - | - | - | - |
| 1777912007 | 22.78° C | 40% | 926.8 hPa | - | - | - | - |
| 1777911106 | 22.78° C | 40% | 926.8 hPa | - | - | - | - |
| 1777910206 | 23.33° C | 39% | 926.7 hPa | - | - | - | - |
| 1777909306 | 21.67° C | 40% | 926.6 hPa | - | - | - | - |
| 1777908406 | 21.67° C | 40% | 926.6 hPa | - | - | - | - |
| 1777907506 | 21.67° C | 40% | 926.5 hPa | - | - | - | - |
| 1777906607 | 21.67° C | 40% | 926.6 hPa | - | - | - | - |
| 1777905706 | 21.11° C | 40% | 926.7 hPa | - | - | - | - |
| 1777904809 | 21.67° C | 40% | 926.7 hPa | - | - | - | - |
| 1777903907 | 21.67° C | 40% | 926.7 hPa | - | - | - | - |
| 1777903006 | 22.22° C | 40% | 926.8 hPa | - | - | - | - |
| 1777902106 | 22.22° C | 39% | 926.9 hPa | - | - | - | - |
| 1777901206 | 25.56° C | 35% | 927 hPa | - | - | - | - |
| 1777900301 | 15° C | 51% | 926.8 hPa | - | - | - | - |
* Rain since midnight (hover to see other rain measurements)
** Current wind speed in m/s (hover to see current wind gust speed)